{"data":{"norad_id":63096,"epoch":"2026-09-21T07:05:53.390976Z","epoch_age_seconds":93544,"freshness":"FRESH","line1":"1 63096U 25037V   26264.29575684  .00019441  00000+0  67863-3 0  9998","line2":"2 63096  70.0028 218.8045 0002156 267.8435  92.2493 15.29598698 87950","mean_motion":15.29598698,"eccentricity":0.0002156,"inclination_deg":70.0028,"raan_deg":218.8045,"arg_perigee_deg":267.8435,"mean_anomaly_deg":92.2493,"bstar":0.00067863,"rev_number":8795,"period_min":94.142339548461,"perigee_km":475.53306701622,"apogee_km":478.48900684974,"semimajor_km":6855.148036933,"source":"CELESTRAK","updated_at":"2026-09-22T09:00:49.761497Z"}}